Date String (YYYY-MM-DD hh:mm:ss) UTC,Instrument flags,Ambient pressure (hPa),Sample flow (lpm),Bypass flow (lpm),Sample temperature (°C),Ambient temperature (°C),ASC tube jacket temperature (°C),LED temperature (°C),Box temperature (°C),Sample RH (%),Span deviation,Mass concentration (μg/m³),Mass concentration (μg/m³),Mass concentration (μg/m³)
DateTimeUTC,F1_M11,P_M11,Q1_M11,Q2_M11,T1_M11,T2_M11,T3_M11,T4_M11,T5_M11,U1_M11,ZSPAN_M11,X0_M11,X2_M11,X1_M11
2022-12-23 23:00:00,,0830.4,5.03,0.00,22.4,21.4,00.0,31.3,24.3,03.6,0002.0,0016.90,0009.37,0008.60
2022-12-23 23:01:00,,0830.3,5.04,0.00,22.5,22.3,00.0,31.3,24.5,03.6,0002.1,0016.51,0009.47,0008.70
2022-12-23 23:02:00,,0830.3,4.95,0.00,22.6,22.3,00.0,31.3,24.5,03.6,0002.6,0017.28,0009.59,0008.80
2022-12-23 23:03:00,,0830.4,5.04,0.00,22.6,22.0,00.0,31.3,24.5,03.6,0002.7,0017.98,0009.69,0008.91
2022-12-23 23:04:00,,0830.4,5.02,0.00,22.6,21.5,00.0,31.4,24.3,03.6,0002.9,0018.65,0009.77,0008.98
2022-12-23 23:05:00,,0830.5,4.96,0.00,22.5,21.1,00.0,31.4,24.2,03.6,0003.2,0018.42,0009.81,0009.03
2022-12-23 23:06:00,,0830.4,4.99,0.00,22.5,20.8,00.0,31.4,24.1,03.6,0003.3,0017.40,0009.79,0009.06
2022-12-23 23:07:00,,0830.4,5.04,0.00,22.4,20.7,00.0,31.3,24.1,03.6,0003.3,0016.72,0009.82,0009.10
2022-12-23 23:08:00,,0830.5,5.01,0.00,22.4,20.6,00.0,31.3,24.0,03.6,0003.4,0016.83,0009.86,0009.15
2022-12-23 23:09:00,,0830.5,4.99,0.00,22.4,20.6,00.0,31.3,24.0,03.6,0003.0,0016.91,0009.91,0009.21
2022-12-23 23:10:00,,0830.4,4.97,0.00,22.4,20.6,00.0,31.3,24.0,03.6,0003.0,0017.32,0009.96,0009.25
2022-12-23 23:11:00,,0830.5,5.01,0.00,22.3,20.5,00.0,31.3,24.0,03.6,0003.1,0017.72,0009.94,0009.26
2022-12-23 23:12:00,,0830.4,5.02,0.00,22.3,20.7,00.0,31.3,24.0,03.6,0003.1,0017.69,0009.93,0009.29
2022-12-23 23:13:00,,0830.4,4.99,0.00,22.4,21.5,00.0,31.2,24.2,03.6,0002.9,0016.77,0009.90,0009.30
2022-12-23 23:14:00,,0830.4,4.99,0.00,22.5,22.3,00.0,31.2,24.4,03.6,0002.9,0016.16,0009.87,0009.31
2022-12-23 23:15:00,,0830.4,5.02,0.00,22.5,22.2,00.0,31.3,24.4,03.6,0002.3,0015.68,0009.91,0009.34
2022-12-23 23:16:00,,0830.5,4.98,0.00,22.5,21.7,00.0,31.3,24.3,03.6,0001.8,0015.87,0009.96,0009.37
2022-12-23 23:17:00,,0830.4,4.98,0.00,22.5,21.3,00.0,31.3,24.2,03.6,0001.6,0015.95,0010.01,0009.39
2022-12-23 23:18:00,,0830.5,5.02,0.00,22.5,21.1,00.0,31.3,24.1,03.6,0001.4,0016.02,0010.00,0009.39
2022-12-23 23:19:00,,0830.4,5.02,0.00,22.4,20.9,00.0,31.3,24.1,03.6,0001.2,0015.93,0010.02,0009.40
2022-12-23 23:20:00,,0830.2,4.98,0.00,22.4,20.8,00.0,31.3,24.1,03.6,0001.1,0015.98,0010.06,0009.45
2022-12-23 23:21:00,,0830.3,4.98,0.00,22.4,20.7,00.0,31.3,24.1,03.6,0000.8,0015.68,0010.12,0009.50
2022-12-23 23:22:00,,0830.3,5.03,0.00,22.4,20.7,00.0,31.3,24.0,03.6,0000.8,0015.87,0010.22,0009.58
2022-12-23 23:23:00,,0830.4,5.02,0.00,22.3,20.7,00.0,31.2,24.0,03.6,0000.7,0016.05,0010.33,0009.67
2022-12-23 23:24:00,,0830.5,5.01,0.00,22.3,20.6,00.0,31.2,24.0,03.6,0000.6,0016.35,0010.52,0009.81
2022-12-23 23:25:00,,0830.4,4.97,0.00,22.3,20.9,00.0,31.2,24.1,03.6,0000.5,0016.61,0010.66,0009.93
2022-12-23 23:26:00,,0830.5,4.99,0.00,22.4,21.8,00.0,31.2,24.3,03.6,0000.5,0016.82,0010.76,0010.03
2022-12-23 23:27:00,,0830.4,5.01,0.00,22.5,22.3,00.0,31.2,24.4,03.6,0000.4,0016.77,0010.80,0010.10
2022-12-23 23:28:00,,0830.4,4.95,0.00,22.6,22.1,00.0,31.2,24.5,03.6,0000.3,0016.81,0010.87,0010.19
2022-12-23 23:29:00,,0830.4,5.04,0.00,22.6,21.8,00.0,31.3,24.4,03.6,0000.4,0017.01,0010.95,0010.29
2022-12-23 23:30:00,,0830.4,5.01,0.00,22.5,21.6,00.0,31.3,24.3,03.6,0000.5,0017.51,0011.06,0010.40
2022-12-23 23:31:00,,0830.5,4.96,0.00,22.5,21.4,00.0,31.3,24.3,03.6,0001.0,0017.56,0011.12,0010.47
2022-12-23 23:32:00,,0830.5,4.98,0.00,22.5,21.2,00.0,31.3,24.2,03.6,0001.6,0017.66,0011.20,0010.54
2022-12-23 23:33:00,,0830.4,5.03,0.00,22.5,21.0,00.0,31.3,24.2,03.6,0002.2,0017.47,0011.28,0010.63
2022-12-23 23:34:00,,0830.4,5.03,0.00,22.5,20.9,00.0,31.3,24.2,03.6,0002.4,0017.57,0011.32,0010.69
2022-12-23 23:35:00,,0830.4,4.99,0.00,22.4,20.8,00.0,31.3,24.1,03.6,0002.4,0018.03,0011.28,0010.68
2022-12-23 23:36:00,,0830.4,4.97,0.00,22.4,20.8,00.0,31.3,24.1,03.6,0002.5,0017.99,0011.27,0010.67
2022-12-23 23:37:00,,0830.4,5.01,0.00,22.4,20.7,00.0,31.3,24.0,03.6,0002.8,0018.30,0011.27,0010.68
2022-12-23 23:38:00,,0830.4,5.03,0.00,22.4,20.7,00.0,31.3,24.0,03.6,0003.0,0018.85,0011.40,0010.79
2022-12-23 23:39:00,,0830.4,5.01,0.00,22.4,20.9,00.0,31.2,24.1,03.6,0003.0,0020.21,0011.63,0010.98
2022-12-23 23:40:00,,0830.4,4.96,0.00,22.4,21.8,00.0,31.2,24.3,03.6,0003.1,0021.26,0011.72,0011.09
2022-12-23 23:41:00,,0830.4,5.01,0.00,22.5,22.2,00.0,31.2,24.4,03.6,0003.2,0021.17,0011.79,0011.15
2022-12-23 23:42:00,,0830.4,5.03,0.00,22.6,21.9,00.0,31.3,24.4,03.6,0003.2,0021.37,0011.90,0011.22
2022-12-23 23:43:00,,0830.4,4.97,0.00,22.5,21.6,00.0,31.3,24.3,03.6,0002.9,0021.37,0011.94,0011.26
2022-12-23 23:44:00,,0830.3,4.99,0.00,22.5,21.4,00.0,31.3,24.3,03.6,0002.2,0021.65,0012.16,0011.44
2022-12-23 23:45:00,,0830.3,5.02,0.00,22.5,21.2,00.0,31.3,24.2,03.6,0001.9,0022.25,0012.46,0011.71
2022-12-23 23:46:00,,0830.4,5.02,0.00,22.5,21.0,00.0,31.3,24.1,03.7,0001.8,0022.31,0012.83,0012.05
2022-12-23 23:47:00,,0830.4,4.97,0.00,22.4,20.8,00.0,31.3,24.1,03.7,0001.7,0022.95,0013.34,0012.53
2022-12-23 23:48:00,,0830.3,4.97,0.00,22.4,20.7,00.0,31.3,24.1,03.7,0002.0,0023.17,0013.81,0012.95
2022-12-23 23:49:00,,0830.2,5.02,0.00,22.4,20.6,00.0,31.3,24.0,03.6,0002.1,0023.22,0014.13,0013.29
2022-12-23 23:50:00,,0830.2,5.02,0.00,22.4,20.8,00.0,31.2,24.1,03.7,0002.3,0022.45,0014.33,0013.51
2022-12-23 23:51:00,,0830.1,4.99,0.00,22.4,21.6,00.0,31.2,24.2,03.7,0002.3,0021.59,0014.45,0013.60
2022-12-23 23:52:00,,0830.1,4.97,0.00,22.5,22.2,00.0,31.2,24.4,03.7,0002.0,0021.34,0014.45,0013.62
2022-12-23 23:53:00,,0830.2,5.03,0.00,22.5,22.0,00.0,31.2,24.4,03.7,0001.7,0021.35,0014.44,0013.62
2022-12-23 23:54:00,,0830.2,5.01,0.00,22.5,21.7,00.0,31.3,24.3,03.7,0002.0,0021.62,0014.55,0013.71
2022-12-23 23:55:00,,0830.2,4.96,0.00,22.5,21.4,00.0,31.3,24.2,03.7,0002.4,0021.65,0014.45,0013.63
2022-12-23 23:56:00,,0830.1,5.01,0.00,22.5,21.1,00.0,31.3,24.1,03.7,0002.9,0021.20,0014.35,0013.52
2022-12-23 23:57:00,,0830.1,5.03,0.00,22.4,21.0,00.0,31.3,24.1,03.7,0002.9,0020.97,0014.20,0013.37
2022-12-23 23:58:00,,0830.1,5.00,0.00,22.4,20.8,00.0,31.3,24.1,03.7,0003.1,0020.26,0013.74,0012.98
2022-12-23 23:59:00,,0830.1,4.97,0.00,22.4,20.7,00.0,31.3,24.0,03.7,0002.9,0019.84,0013.40,0012.67
